FENGYUN 1C DEB, 36199

Orbit data source: Space-Track

FENGYUN 1C DEB, 36199 is space debris in SSO originally from a launch on Mon, 10 May 1999 UTC launched from the Taiyaun Space Center, China (TSC). Fengyun 1C debris stems from the Chinese weather satellite Fengyun-1C, which was intentionally destroyed by a Chinese anti-satellite missile in 2007. This event dramatically increased the amount of space debris, with thousands of trackable fragments posing hazards to satellites and human spaceflight. The Fengyun 1C debris cloud has become a focal point in discussions about space sustainability and the need for international regulations to prevent the creation of new debris.

Loading next visibility...
Identifier
36199, 1999-025DTY
Orbit
SSO
Country
Flag of CNCN / PRC
Related business
Manufacturer
Unknown
Mission
Spacecraft
Bus & Motor
Unknown
Mass
Unknown
Launch date (UTC)
Icon of a cake. It is the launch day of the satellite!1999-05-10 (27 years ago)
Launch vehicle
Unknown
Launch site
Taiyaun Space Center, China (TSC)
Object type
Payload
Rocket body
Debris
Shape & HBR
Unknown shape, 0.1 m
Radar Cross Section
Small (<0.1 m²)

Expand to show TLE details & history
Last TLE update: 2 days ago

TLE from 2 days ago
0 FENGYUN 1C DEB
1 36199U 99025DTY 26128.77597278  .00000454  00000-0  18386-3 0  9996
2 36199  98.2777 147.8293 0091326 352.3174   7.6605 14.29881109670819
Epoch: 2026-05-08T18:37Z
TLE epoch observation values (Epoch: 2026-05-08T18:37:24.048Z)
Latitude
0.00003°
Longitude
1.87619°
Altitude
730.169 km
Speed
7.524 km/s
True Right ascension
09h 51m 19s
True Declination
0° 00' 00"
Sunlit
Object was in daylight at epoch
Visualization orbit readout
Latitude
Unknown
Longitude
Unknown
Altitude
Unknown
Speed
Unknown
Apparent Right ascension
Unknown
Apparent Declination
Unknown
Sunlit
N/A
Visualization observer readout
Local Sidereal Time
21:26:32
Azimuth
Unknown
Elevation
Unknown
Doppler factor
Unknown
Orbital elements
Apogee altitude
854.71 km
Perigee altitude
723.796 km
Semi-major axis
7,167.39 km
Eccentricity
0.00913
Inclination
98.2777°
RAAN
147.8293°
Arg. of periapsis
352.3174°
True anomaly
7.8016°
Mean anomaly
7.6605°
Eccentric anomaly
7.73089°
Mean motion
3.57686 °/min
Orbital period
100.65 mins
BSTAR
0.00018386
Loading maneuver chart data...
Computing Atmospheric mass density...

Documentation

Showing up to 5 results
|